TimeEDT,TemperatureF,Dew PointF,Humidity,Sea Level PressureIn,VisibilityMPH,Wind Direction,Wind SpeedMPH,Gust SpeedMPH,PrecipitationIn,Events,Conditions,WindDirDegrees,DateUTC
12:51 AM,54.0,44.1,69,29.82,10.0,NNE,10.4,-,N/A,,Mostly Cloudy,20,2012-06-05 04:51:00
1:51 AM,53.1,44.1,71,29.81,10.0,NNE,11.5,-,N/A,,Mostly Cloudy,20,2012-06-05 05:51:00
2:51 AM,53.1,44.1,71,29.82,10.0,North,9.2,-,N/A,,Mostly Cloudy,360,2012-06-05 06:51:00
3:51 AM,52.0,44.1,74,29.81,10.0,North,9.2,-,N/A,,Mostly Cloudy,360,2012-06-05 07:51:00
4:51 AM,52.0,44.1,74,29.82,10.0,NNW,8.1,-,N/A,,Mostly Cloudy,340,2012-06-05 08:51:00
5:51 AM,53.1,44.1,71,29.84,10.0,North,8.1,-,N/A,,Mostly Cloudy,350,2012-06-05 09:51:00
6:51 AM,54.0,46.0,75,29.85,10.0,North,11.5,-,N/A,,Mostly Cloudy,10,2012-06-05 10:51:00
7:51 AM,57.0,46.0,67,29.86,10.0,North,13.8,-,N/A,,Mostly Cloudy,10,2012-06-05 11:51:00
8:51 AM,60.1,48.0,64,29.88,10.0,NNE,11.5,-,N/A,,Mostly Cloudy,20,2012-06-05 12:51:00
9:51 AM,60.1,45.0,57,29.88,10.0,NNE,10.4,-,N/A,,Mostly Cloudy,20,2012-06-05 13:51:00
10:51 AM,62.1,43.0,50,29.88,10.0,NE,6.9,-,N/A,,Mostly Cloudy,50,2012-06-05 14:51:00
11:51 AM,62.1,44.1,52,29.89,10.0,North,8.1,-,N/A,,Overcast,360,2012-06-05 15:51:00
12:51 PM,63.0,43.0,48,29.90,10.0,NW,9.2,-,N/A,,Overcast,310,2012-06-05 16:51:00
1:51 PM,64.9,42.1,43,29.89,10.0,North,6.9,-,N/A,,Overcast,360,2012-06-05 17:51:00
2:51 PM,64.0,43.0,46,29.88,10.0,North,9.2,-,N/A,,Overcast,360,2012-06-05 18:51:00
3:51 PM,63.0,45.0,52,29.89,10.0,NNE,10.4,-,0.00,Rain,Light Rain,20,2012-06-05 19:51:00
4:51 PM,64.0,45.0,50,29.88,10.0,NNW,9.2,-,0.00,,Overcast,340,2012-06-05 20:51:00
5:51 PM,64.0,46.0,52,29.89,10.0,NNW,8.1,-,N/A,,Overcast,330,2012-06-05 21:51:00
6:51 PM,63.0,48.0,58,29.91,10.0,North,9.2,-,N/A,,Mostly Cloudy,10,2012-06-05 22:51:00
7:51 PM,63.0,46.9,56,29.92,10.0,North,5.8,-,N/A,,Mostly Cloudy,360,2012-06-05 23:51:00
8:51 PM,62.1,48.9,62,29.94,10.0,ESE,6.9,-,0.00,,Mostly Cloudy,110,2012-06-06 00:51:00
9:51 PM,61.0,50.0,67,29.95,10.0,SSE,3.5,-,N/A,,Mostly Cloudy,160,2012-06-06 01:51:00
10:51 PM,59.0,52.0,78,29.94,10.0,Calm,Calm,-,0.00,Rain,Light Rain,0,2012-06-06 02:51:00
11:51 PM,59.0,52.0,78,29.95,10.0,North,3.5,-,0.00,,Mostly Cloudy,350,2012-06-06 03:51:00